Redmond, OR

4:44 AM PST on November 17, 2019 (GMT -0800)
Roberts Field Airport

Weather History for KRDM - September, 2019

Change the Weather History Date:

Wednesday, September 4, 2019

  Actual Average Record
Temperature  
Mean Temperature 69 °F 61 °F  
Max Temperature 90 °F 80 °F 101 °F (1998)
Min Temperature 47 °F 41 °F 31 °F (1969)
Degree Days  
Heating Degree Days 0 5  
Month to date heating degree days 0 20  
Since 1 July heating degree days 47 169  
Cooling Degree Days 4 1  
Month to date cooling degree days 20 4  
Year to date cooling degree days 276 210  
Growing Degree Days 19 (Base 50)    
Moisture  
Dew Point 47 °F    
Average Humidity 55    
Maximum Humidity 86    
Minimum Humidity 24    
Precipitation  
Precipitation 0.00 in 0.01 in 0.44 in (1952)
Month to date precipitation 0.00 0.05  
Year to date precipitation 7.46 5.78  
Sea Level Pressure  
Sea Level Pressure 29.97 in    
Wind  
Wind Speed 6 mph (WNW)    
Max Wind Speed 17 mph    
Max Gust Speed 20 mph    
Visibility 10 miles    
Events      
T = Trace of Precipitation, MM = Missing Value Source: NWS Daily Summary

Daily Weather History Graph

Daily Weather History Graph

Search for Another Location

Airport or City:

Astronomy

Sep. 04, 2019 Rise Set
Actual Time 6:30 AM PDT 7:35 PM PDT
Civil Twilight 6:01 AM PDT 8:05 PM PDT
Nautical Twilight 5:25 AM PDT 8:40 PM PDT
Astronomical Twilight 4:48 AM PDT 9:17 PM PDT
Moon 12:51 PM PDT (9/4) 10:59 PM PDT (9/4)
Length of Visible Light 14h 04m
Length of Day
13h 04m
Waxing Crescent, 36% of the Moon is Illuminated
Sep 4
Waxing Crescent
Sep 5
First Quarter
Sep 13
Full
Sep 21
Last Quarter
Sep 28
New

Hourly Weather History & Observations

Time (PDT) Temp. Dew Point Humidity Pressure Visibility Wind Dir Wind Speed Gust Speed Precip Events Conditions
12:56 AM 54.0 °F 45.0 °F 72% 30.00 in 10.0 mi SW 3.5 mph - N/A   Clear
1:56 AM 55.9 °F 48.0 °F 75% 30.00 in 10.0 mi SW 3.5 mph - N/A   Clear
2:56 AM 52.0 °F 46.0 °F 80% 30.01 in 10.0 mi SW 3.5 mph - N/A   Clear
3:56 AM 50.0 °F 46.0 °F 86% 30.01 in 10.0 mi SSW 3.5 mph - N/A   Clear
4:56 AM 48.0 °F 44.1 °F 86% 30.01 in 10.0 mi South 3.5 mph - N/A   Clear
5:56 AM 48.0 °F 45.0 °F 89% 30.02 in 10.0 mi South 4.6 mph - N/A   Clear
6:56 AM 48.9 °F 45.0 °F 86% 30.04 in 10.0 mi SSE 5.8 mph - N/A   Clear
7:56 AM 55.0 °F 48.0 °F 77% 30.04 in 10.0 mi Calm Calm - N/A   Clear
8:56 AM 62.1 °F 50.0 °F 65% 30.04 in 10.0 mi Calm Calm - N/A   Clear
9:56 AM 66.9 °F 51.1 °F 57% 30.03 in 10.0 mi Calm Calm - N/A   Clear
10:56 AM 73.0 °F 51.1 °F 46% 30.01 in 10.0 mi NNE 3.5 mph - N/A   Clear
11:56 AM 78.1 °F 50.0 °F 37% 30.00 in 10.0 mi NNE 5.8 mph - N/A   Clear
12:56 PM 82.9 °F 51.1 °F 33% 29.97 in 10.0 mi NW 8.1 mph - N/A   Clear
1:56 PM 86.0 °F 48.9 °F 28% 29.95 in 10.0 mi NNW 8.1 mph - N/A   Clear
2:56 PM 88.0 °F 48.0 °F 25% 29.93 in 10.0 mi NW 8.1 mph - N/A   Clear
3:56 PM 90.0 °F 48.0 °F 24% 29.91 in 10.0 mi NNW 11.5 mph - N/A   Clear
4:56 PM 89.1 °F 48.9 °F 25% 29.90 in 10.0 mi NNW 12.7 mph - N/A   Clear
5:56 PM 88.0 °F 48.0 °F 25% 29.89 in 10.0 mi NNW 12.7 mph - N/A   Smoke
6:56 PM 84.0 °F 46.9 °F 27% 29.90 in 10.0 mi NNW 10.4 mph - N/A   Smoke
7:56 PM 79.0 °F 46.0 °F 31% 29.92 in 10.0 mi NW 9.2 mph - N/A   Smoke
8:56 PM 75.9 °F 46.9 °F 36% 29.92 in 10.0 mi NW 8.1 mph - N/A   Smoke
9:56 PM 73.0 °F 46.0 °F 38% 29.94 in 10.0 mi NW 5.8 mph - N/A   Smoke
10:56 PM 72.0 °F 46.0 °F 40% 29.94 in 10.0 mi NW 6.9 mph - N/A   Smoke
11:56 PM 69.1 °F 45.0 °F 42% 29.95 in 10.0 mi WNW 4.6 mph - N/A   Smoke